NWS Melbourne » East Central Florida Hourly Weather Roundup

MIARWRMLB 000
TTAA00 KMLB 220011
HOURLY WEATHER ROUNDUP AROUND FLORIDA
NATIONAL WEATHER SERVICE OFFICE MELBOURNE FL
800 PM EDT SUN SEP 21 2014
  
CITY           SKY/WX    TMP DP  RH WIND       PRES   REMARKS
MELBOURNE      PTCLDY    78  74  87 S3        29.99R                  
FORT PIERCE    MOCLDY    75  72  90 S3        30.00R                  
ORLANDO INTL   MOCLDY    78  74  87 SE8G22    30.00R                  
DAYTONA BEACH  PTCLDY    78  70  76 E3        30.00R                  
VERO BEACH     MOCLDY    74  72  93 S3        30.00R                  
$$
...ELSEWHERE ACROSS CENTRAL FLORIDA...
  
CITY           SKY/WX    TMP DP  RH WIND       PRES   REMARKS
PATRICK AFB    PTCLDY    81  73  78 E5        29.99R                  
JFK SPACE CTR  MOCLDY    76  72  86 SE2       29.99R                  
CAPE CANAVERAL MOCLDY    77  70  79 E2        29.99R                  
TITUSVILLE     PTCLDY    79  72  78 CALM      30.00R                  
ORLANDO EXEC   MOCLDY    80  73  79 SE7       30.00R                  
LEESBURG       MOCLDY    83  68  60 E8        29.99R                  
SANFORD        PTCLDY    79  71  76 E6        29.99R                  
WINTER HAVEN   MOCLDY    83  72  69 S7        30.00R                  
KISSIMMEE      PTCLDY    81  75  83 E9        29.99R                  
OKEECHOBEE       N/A     73  73 100 MISG      30.00R                  
TAMPA          MOCLDY    82  73  74 W6        29.99R                  
$$
...NORTHERN FLORIDA...
  
CITY           SKY/WX    TMP DP  RH WIND       PRES   REMARKS
DELAND         CLEAR     77  68  73 NE3       30.01R                  
NEW SMYRNA BCH CLEAR     79  68  69 NE8       29.99R                  
PALM COAST     CLEAR     75  68  79 CALM      29.99S                  
ST AUGUSTINE   CLEAR     77  67  71 CALM      30.00S                  
THE VILLAGES     N/A     82  70  65 CALM      29.89R                  
OCALA          CLEAR     77  68  73 CALM      29.98R                  
GAINESVILLE    CLEAR     74  66  76 CALM      29.98R                  
JACKSONVILLE   PTCLDY    74  66  76 S7        29.97S                  
TALLAHASSEE    PTCLDY    78  66  66 S5        29.98R                  
$$
...ALONG THE SOUTHEAST COAST TO THE KEYS...
  
CITY           SKY/WX    TMP DP  RH WIND       PRES   REMARKS
WEST PALM BCH  LGT RAIN  75  74  96 S5        30.01R                  
MIAMI          MOCLDY    80  75  84 CALM      30.01R                  
KEY WEST       PTCLDY    84  74  71 E5        29.99R                  
$$
...MARINE REPORTS...
  
STATION/POSITION TIME  TEMP    WIND        PRES    WAVE   SWELL
                       AIR SEA DIR/SP/G            HT/PER HT/PER/DIR
                 (UTC) (F)     (DEG/KT/KT) (MB)    (FT/S) (FT/S/D)
ST AUGUSTINE FP  0000   80      90/  4/  5 1016.5R
20NM E CAPE CANA 0000   81 84   60/  6/  8 1015.7R   4/10   3/ 40/10
120 E NEW SMYRNA 0000   82 85  340/  2/  4 1015.7R   5/10   5/ 20/10
TRIDENT PIER     0000   78 84   10/  1/  3 1015.0R
SEBASTIAN INLET  0000   77     190/  4     1016.0S
4NM E PORT CANAV 0000      83                N/A     2/10
6NM NE FPR INLET 0000      83                N/A     2/ 9
SETTLEMENT PT GB 0000   82     260/  4/  4 1016.9R
$$
  
 


USA.gov is the U.S. government's official web portal to all federal, state and local government web resources and services.